When you browse on this site, cookies collect data to enhance your experience and personalize the content and advertising you see.
Visit our Privacy Policy to learn more. By continuing to use the site, you agree to this use of cookies and data.
  • en France
  • Liste des pays
  • À 7 jours
  • Température de l'eau
  • Carte satellitaire
  • Carte météo
  • Widgets météo
  • user-avatar
    Se connecter

    Météo par heure à Santiago del Estero

    Ce jour, 16 Janvier, Mercredi

    Heure Température Précipitation Vent Pression Humidité
    00:00 +24°C° 0 mm 2 m/s 741 mmHg 87%
    01:00 +24°C° 0 mm 2 m/s 741 mmHg 87%
    02:00 +24°C° 0 mm 2 m/s 741 mmHg 86%
    03:00 +24°C° 0 mm 1 m/s 741 mmHg 87%
    04:00 +24°C° 0 mm 1 m/s 741 mmHg 88%
    05:00 +21°C° 0 mm 0 m/s 740 mmHg 89%
    06:00 +25°C° 0 mm 1 m/s 741 mmHg 83%
    07:00 +26°C° 0 mm 1 m/s 741 mmHg 77%
    08:00 +28°C° 0 mm 1 m/s 741 mmHg 71%
    09:00 +30°C° 0 mm 2 m/s 740 mmHg 66%
    10:00 +31°C° 0 mm 2 m/s 740 mmHg 60%
    11:00 +33°C° 0 mm 3 m/s 740 mmHg 55%
    12:00 +34°C° 0 mm 3 m/s 739 mmHg 55%
    13:00 +34°C° 0 mm 4 m/s 739 mmHg 56%
    14:00 +35°C° 0 mm 4 m/s 738 mmHg 56%
    15:00 +34°C° 0 mm 4 m/s 738 mmHg 58%
    16:00 +34°C° 0 mm 4 m/s 737 mmHg 60%
    17:00 +34°C° 0 mm 4 m/s 737 mmHg 62%
    18:00 +31°C° 0 mm 3 m/s 737 mmHg 67%
    19:00 +30°C° 0 mm 2 m/s 737 mmHg 72%
    20:00 +29°C° 0 mm 1 m/s 737 mmHg 76%
    21:00 +29°C° 0 mm 1 m/s 738 mmHg 78%
    22:00 +29°C° 0 mm 1 m/s 739 mmHg 80%
    23:00 +28°C° 0 mm 1 m/s 739 mmHg 82%

    Demain, 17 Janvier, Jeudi

    Heure Température Précipitation Vent Pression Humidité
    00:00 +28°C° 0.5 mm 2 m/s 739 mmHg 85%
    01:00 +28°C° 0.5 mm 2 m/s 739 mmHg 89%
    02:00 +27°C° 0.5 mm 3 m/s 738 mmHg 93%
    03:00 +27°C° 1.8 mm 4 m/s 738 mmHg 94%
    04:00 +26°C° 1.8 mm 4 m/s 739 mmHg 95%
    05:00 +26°C° 1.8 mm 5 m/s 739 mmHg 95%
    06:00 +26°C° 2.3 mm 5 m/s 739 mmHg 94%
    07:00 +26°C° 2.3 mm 5 m/s 740 mmHg 93%
    08:00 +27°C° 2.3 mm 6 m/s 741 mmHg 92%
    09:00 +26°C° 2.8 mm 6 m/s 742 mmHg 92%
    10:00 +26°C° 2.8 mm 6 m/s 743 mmHg 92%
    11:00 +24°C° 2.8 mm 6 m/s 743 mmHg 91%
    12:00 +24°C° 0.6 mm 6 m/s 744 mmHg 90%
    13:00 +24°C° 0.6 mm 6 m/s 744 mmHg 88%
    14:00 +26°C° 0.6 mm 6 m/s 744 mmHg 86%
    15:00 +24°C° 0.4 mm 6 m/s 744 mmHg 86%
    16:00 +24°C° 0.4 mm 6 m/s 744 mmHg 85%
    17:00 +23°C° 0.4 mm 6 m/s 744 mmHg 85%
    18:00 +23°C° 0 mm 5 m/s 745 mmHg 84%
    19:00 +23°C° 0 mm 5 m/s 745 mmHg 83%
    20:00 +22°C° 0 mm 5 m/s 746 mmHg 82%
    21:00 +22°C° 0.1 mm 5 m/s 746 mmHg 81%
    22:00 +21°C° 0.1 mm 5 m/s 747 mmHg 81%
    23:00 +21°C° 0.1 mm 6 m/s 747 mmHg 81%

    Après-demain, 18 Janvier, Vendredi

    Heure Température Précipitation Vent Pression Humidité
    00:00 +20°C° 0.4 mm 5 m/s 747 mmHg 83%
    01:00 +20°C° 0.4 mm 5 m/s 747 mmHg 85%
    02:00 +19°C° 0.4 mm 5 m/s 747 mmHg 88%
    03:00 +19°C° 0.4 mm 5 m/s 747 mmHg 88%
    04:00 +18°C° 0.4 mm 4 m/s 747 mmHg 89%
    05:00 +18°C° 0.4 mm 4 m/s 747 mmHg 90%
    06:00 +19°C° 0.1 mm 4 m/s 747 mmHg 88%
    07:00 +19°C° 0.1 mm 4 m/s 747 mmHg 86%
    08:00 +19°C° 0.1 mm 4 m/s 748 mmHg 84%
    09:00 +21°C° 0 mm 5 m/s 748 mmHg 79%
    10:00 +23°C° 0 mm 5 m/s 748 mmHg 73%
    11:00 +25°C° 0 mm 5 m/s 748 mmHg 68%
    12:00 +25°C° 0 mm 5 m/s 748 mmHg 68%
    13:00 +25°C° 0 mm 5 m/s 747 mmHg 68%
    14:00 +26°C° 0 mm 4 m/s 747 mmHg 68%
    15:00 +25°C° 0 mm 4 m/s 746 mmHg 71%
    16:00 +23°C° 0 mm 4 m/s 746 mmHg 73%
    17:00 +23°C° 0 mm 4 m/s 745 mmHg 75%
    18:00 +22°C° 0 mm 3 m/s 746 mmHg 79%
    19:00 +21°C° 0 mm 2 m/s 746 mmHg 82%
    20:00 +19°C° 0 mm 2 m/s 746 mmHg 85%
    21:00 +20°C° 0 mm 2 m/s 746 mmHg 85%
    22:00 +21°C° 0 mm 1 m/s 746 mmHg 84%
    23:00 +21°C° 0 mm 1 m/s 747 mmHg 84%

    19 Janvier, Samedi

    Heure Température Précipitation Vent Pression Humidité
    00:00 +20°C° 0 mm 1 m/s 746 mmHg 84%
    01:00 +20°C° 0 mm 1 m/s 746 mmHg 85%
    02:00 +20°C° 0 mm 1 m/s 746 mmHg 86%
    03:00 +20°C° 0 mm 1 m/s 746 mmHg 87%
    04:00 +20°C° 0 mm 1 m/s 746 mmHg 88%
    05:00 +20°C° 0 mm 1 m/s 746 mmHg 90%
    06:00 +21°C° 0 mm 1 m/s 746 mmHg 86%
    07:00 +22°C° 0 mm 1 m/s 746 mmHg 82%
    08:00 +23°C° 0 mm 1 m/s 747 mmHg 78%
    09:00 +25°C° 0 mm 1 m/s 746 mmHg 73%
    10:00 +26°C° 0 mm 1 m/s 746 mmHg 67%
    11:00 +28°C° 0 mm 1 m/s 746 mmHg 62%
    12:00 +28°C° 0 mm 2 m/s 745 mmHg 61%
    13:00 +28°C° 0 mm 2 m/s 745 mmHg 61%
    14:00 +29°C° 0 mm 3 m/s 744 mmHg 60%
    15:00 +29°C° 0 mm 3 m/s 743 mmHg 59%
    16:00 +29°C° 0 mm 3 m/s 743 mmHg 59%
    17:00 +30°C° 0 mm 3 m/s 742 mmHg 58%
    18:00 +28°C° 0 mm 3 m/s 742 mmHg 64%
    19:00 +27°C° 0 mm 2 m/s 742 mmHg 69%
    20:00 +25°C° 0 mm 2 m/s 743 mmHg 74%
    21:00 +25°C° 0 mm 2 m/s 743 mmHg 76%
    22:00 +24°C° 0 mm 2 m/s 744 mmHg 78%
    23:00 +24°C° 0 mm 2 m/s 744 mmHg 79%

    20 Janvier, Dimanche

    Heure Température Précipitation Vent Pression Humidité
    00:00 +24°C° 0 mm 2 m/s 744 mmHg 81%
    01:00 +23°C° 0 mm 2 m/s 743 mmHg 83%
    02:00 +23°C° 0 mm 1 m/s 743 mmHg 85%
    03:00 +22°C° 0 mm 1 m/s 743 mmHg 87%
    04:00 +22°C° 0 mm 1 m/s 743 mmHg 89%
    05:00 +22°C° 0 mm 1 m/s 743 mmHg 91%
    06:00 +23°C° 0 mm 1 m/s 743 mmHg 87%
    07:00 +24°C° 0 mm 2 m/s 743 mmHg 82%
    08:00 +26°C° 0 mm 2 m/s 744 mmHg 77%
    09:00 +27°C° 0 mm 2 m/s 744 mmHg 71%
    10:00 +28°C° 0 mm 2 m/s 743 mmHg 66%
    11:00 +30°C° 0 mm 3 m/s 743 mmHg 61%
    12:00 +31°C° 0 mm 3 m/s 742 mmHg 56%
    13:00 +33°C° 0 mm 3 m/s 741 mmHg 52%
    14:00 +34°C° 0 mm 3 m/s 741 mmHg 48%
    15:00 +34°C° 0 mm 3 m/s 740 mmHg 47%
    16:00 +35°C° 0 mm 3 m/s 739 mmHg 46%
    17:00 +35°C° 0 mm 4 m/s 738 mmHg 45%
    18:00 +33°C° 0 mm 4 m/s 738 mmHg 52%
    19:00 +30°C° 0 mm 4 m/s 739 mmHg 59%
    20:00 +28°C° 0 mm 3 m/s 739 mmHg 66%
    21:00 +28°C° 0 mm 4 m/s 739 mmHg 68%
    22:00 +27°C° 0 mm 4 m/s 740 mmHg 70%
    23:00 +27°C° 0 mm 4 m/s 740 mmHg 72%

    21 Janvier, Lundi

    Heure Température Précipitation Vent Pression Humidité
    00:00 +26°C° 0 mm 3 m/s 739 mmHg 74%
    01:00 +26°C° 0 mm 3 m/s 739 mmHg 75%
    02:00 +25°C° 0 mm 3 m/s 738 mmHg 76%
    03:00 +25°C° 0 mm 3 m/s 738 mmHg 79%
    04:00 +24°C° 0 mm 2 m/s 738 mmHg 81%
    05:00 +24°C° 0 mm 2 m/s 738 mmHg 83%
    06:00 +25°C° 0 mm 3 m/s 739 mmHg 81%
    07:00 +26°C° 0 mm 3 m/s 739 mmHg 78%
    08:00 +27°C° 0 mm 4 m/s 740 mmHg 75%
    09:00 +29°C° 0 mm 4 m/s 740 mmHg 68%
    10:00 +32°C° 0 mm 4 m/s 740 mmHg 62%
    11:00 +34°C° 0 mm 4 m/s 740 mmHg 55%
    12:00 +35°C° 0 mm 4 m/s 739 mmHg 52%
    13:00 +36°C° 0 mm 4 m/s 739 mmHg 49%
    14:00 +37°C° 0 mm 4 m/s 738 mmHg 46%
    15:00 +38°C° 0 mm 4 m/s 738 mmHg 46%
    16:00 +38°C° 0 mm 3 m/s 738 mmHg 46%
    17:00 +38°C° 0 mm 3 m/s 737 mmHg 45%
    18:00 +36°C° 0 mm 3 m/s 738 mmHg 50%
    19:00 +35°C° 0 mm 3 m/s 738 mmHg 55%
    20:00 +33°C° 0 mm 3 m/s 739 mmHg 59%
    21:00 +31°C° 0 mm 3 m/s 739 mmHg 62%
    22:00 +31°C° 0 mm 3 m/s 740 mmHg 64%
    23:00 +30°C° 0 mm 3 m/s 740 mmHg 66%
    Voir plus